Location: Katherine
(14.4670°S, 132.2670°E)
Time: 05:51:05
(UTC+09:30)

ISS - Pass Details

Date: 20 June 2018
Orbit: 402 x 406 km, 51.6° (Epoch: 20 June)

Event Time Altitude Azimuth Distance (km) Brightness Sun altitude
Exits shadow 05:26:24 13° 147° (SSE) 1,290 -1.2 -22.9°
Maximum altitude 05:27:09 14° 132° (SE) 1,250 -1.0 -22.7°
Drops below altitude 10° 05:28:57 10° 98° (E) 1,462 -0.2 -22.3°
Sets 05:31:47 0° 71° (ENE) 2,316 1.6 -21.6°
